, MS

(GMT )
Nakika

Weather History for KIKT - March, 2014

Change the Weather History Date:

Thursday, March 6, 2014

  Actual Average Record
Temperature  
Mean Temperature 66 °F -  
Max Temperature 73 °F - - ()
Min Temperature 57 °F - - ()
Cooling Degree Days 1    
Growing Degree Days 16 (Base 50)    
Moisture  
Dew Point 58 °F    
Average Humidity 81    
Maximum Humidity 94    
Minimum Humidity 65    
Precipitation  
Precipitation 0.02 in - - ()
Sea Level Pressure  
Sea Level Pressure 29.90 in    
Wind  
Wind Speed 15 mph (NNW)    
Max Wind Speed 32 mph    
Max Gust Speed 48 mph    
Visibility 9 miles    
Events      
Averages and records for this station are not official NWS values.
T = Trace of Precipitation, MM = Missing Value Source: NWS Daily Summary

Daily Weather History Graph

Daily Weather History Graph

Search for Another Location

Airport or City:

Trip Planner

Search our weather history database for the weather conditions in past years. The results will help you decide how hot, cold, wet, or windy it might be!

Date:

Astronomy

Mar. 06, 2014 Rise Set
Actual Time 6:12 AM CST 5:56 PM CST
Civil Twilight 5:49 AM CST 6:19 PM CST
Nautical Twilight 5:21 AM CST 6:47 PM CST
Astronomical Twilight 4:54 AM CST 7:14 PM CST
Moon 9:48 AM CST (3/6) 11:33 PM CST (3/6)
Length of Visible Light 12h 30m
Length of Day
11h 43m
Waxing Crescent, 32% of the Moon is Illuminated
Mar 6
Waxing Crescent
Mar 8
First Quarter
Mar 16
Full
Mar 23
Last Quarter
Mar 30
New

Hourly Weather History & Observations

Time (CST) Temp. Dew Point Humidity Pressure Visibility Wind Dir Wind Speed Gust Speed Precip Events Conditions
12:20 AM 68.0 °F 64.4 °F 88% 29.87 in 7.0 mi East 19.6 mph - N/A   Scattered Clouds
12:35 AM 68.0 °F 64.4 °F 88% 29.88 in 7.0 mi East 19.6 mph - N/A   Mostly Cloudy
1:00 AM 68.0 °F 64.4 °F 88% 29.89 in 7.0 mi East 12.7 mph - N/A   Mostly Cloudy
1:15 AM 68.0 °F 64.4 °F 88% 29.88 in 7.0 mi ENE 13.8 mph - N/A   Overcast
1:40 AM 68.0 °F 66.2 °F 94% 29.89 in 7.0 mi NE 6.9 mph 12.7 mph N/A   Overcast
1:55 AM 66.2 °F 64.4 °F 94% 29.88 in 3.0 mi NNE 13.8 mph 21.9 mph N/A   Overcast
2:20 AM 66.2 °F 64.4 °F 94% 29.87 in 4.0 mi NNE 17.3 mph 24.2 mph N/A   Mostly Cloudy
2:35 AM 66.2 °F 64.4 °F 94% 29.87 in 5.0 mi NNE 24.2 mph - N/A   Overcast
3:00 AM 62.6 °F 60.8 °F 94% 29.85 in 3.0 mi NE 17.3 mph 28.8 mph 0.02 in   Overcast
3:15 AM 62.6 °F 60.8 °F 94% 29.84 in 3.0 mi NNE 28.8 mph 39.1 mph N/A   Overcast
3:40 AM 62.6 °F 60.8 °F 94% 29.82 in 5.0 mi NNE 31.1 mph 39.1 mph N/A   Overcast
3:55 AM 62.6 °F 60.8 °F 94% 29.83 in 3.0 mi NNE 32.2 mph 48.3 mph N/A   Overcast
4:15 AM 62.6 °F 59.0 °F 88% 29.87 in 3.0 mi NNE 24.2 mph 31.1 mph N/A   Overcast
4:40 AM 62.6 °F 59.0 °F 88% 29.90 in 3.0 mi NE 10.4 mph 20.7 mph N/A   Overcast
4:55 AM 62.6 °F 59.0 °F 88% 29.88 in 5.0 mi NE 10.4 mph 17.3 mph N/A   Overcast
5:20 AM 62.6 °F 59.0 °F 88% 29.85 in 10.0 mi ENE 23.0 mph - N/A   Overcast
5:35 AM 62.6 °F 59.0 °F 88% 29.85 in 9.0 mi ENE 25.3 mph - N/A   Overcast
6:00 AM 64.4 °F 59.0 °F 83% 29.86 in 10.0 mi ENE 23.0 mph - N/A   Scattered Clouds
6:15 AM 64.4 °F 59.0 °F 83% 29.87 in 10.0 mi East 19.6 mph - N/A   Clear
6:40 AM 64.4 °F 59.0 °F 83% 29.88 in 10.0 mi East 19.6 mph - N/A   Clear
6:55 AM 64.4 °F 59.0 °F 83% 29.89 in 10.0 mi East 18.4 mph - N/A   Clear
7:20 AM 64.4 °F 59.0 °F 83% 29.90 in 10.0 mi East 17.3 mph - N/A   Clear
7:35 AM 64.4 °F 59.0 °F 83% 29.90 in 10.0 mi East 15.0 mph - N/A   Clear
7:55 AM 66.2 °F 59.0 °F 78% 29.91 in 10.0 mi East 10.4 mph - N/A   Clear
8:15 AM 66.2 °F 59.0 °F 78% 29.92 in 10.0 mi East 6.9 mph - N/A   Partly Cloudy
8:40 AM 69.8 °F 60.8 °F 73% 29.93 in 10.0 mi Calm Calm - N/A   Mostly Cloudy
8:55 AM 71.6 °F 60.8 °F 69% 29.93 in 10.0 mi Calm Calm - N/A   Overcast
9:20 AM 69.8 °F 60.8 °F 73% 29.93 in 8.0 mi Variable 3.5 mph - N/A   Overcast
9:35 AM 69.8 °F 60.8 °F 73% 29.93 in 10.0 mi Variable 3.5 mph - N/A   Overcast
10:00 AM 71.6 °F 60.8 °F 69% 29.93 in 10.0 mi Variable 4.6 mph - N/A   Overcast
10:20 AM 71.6 °F 60.8 °F 69% 29.92 in 10.0 mi Variable 5.8 mph - N/A   Overcast
10:35 AM 73.4 °F 60.8 °F 65% 29.92 in 10.0 mi Variable 4.6 mph - N/A   Overcast
11:00 AM 71.6 °F 62.6 °F 73% 29.92 in 10.0 mi NW 10.4 mph 17.3 mph N/A   Overcast
11:15 AM 71.6 °F 60.8 °F 69% 29.91 in 10.0 mi NW 10.4 mph - N/A   Mostly Cloudy
11:40 AM 69.8 °F 60.8 °F 73% 29.91 in 10.0 mi Variable 5.8 mph 15.0 mph N/A   Overcast
12:00 PM 68.0 °F 60.8 °F 78% 29.91 in 10.0 mi Variable 5.8 mph 13.8 mph N/A   Overcast
12:15 PM 69.8 °F 60.8 °F 73% 29.90 in 10.0 mi Variable 6.9 mph 15.0 mph N/A   Overcast
12:40 PM 69.8 °F 60.8 °F 73% 29.90 in 10.0 mi NW 13.8 mph 20.7 mph N/A   Overcast
12:55 PM 68.0 °F 60.8 °F 78% 29.89 in 10.0 mi WNW 11.5 mph 19.6 mph N/A   Overcast
1:20 PM 68.0 °F 60.8 °F 78% 29.89 in 10.0 mi WNW 12.7 mph 20.7 mph N/A   Overcast
1:35 PM 68.0 °F 59.0 °F 73% 29.88 in 10.0 mi WNW 16.1 mph 21.9 mph N/A   Overcast
2:00 PM 66.2 °F 59.0 °F 78% 29.88 in 10.0 mi NW 12.7 mph 23.0 mph N/A   Overcast
2:15 PM 64.4 °F 59.0 °F 83% 29.88 in 10.0 mi Variable 10.4 mph 19.6 mph N/A   Overcast
2:35 PM 64.4 °F 57.2 °F 77% 29.89 in 10.0 mi WNW 11.5 mph 24.2 mph N/A   Overcast
3:00 PM 62.6 °F 57.2 °F 82% 29.89 in 9.0 mi WNW 11.5 mph 24.2 mph N/A   Overcast
3:15 PM 62.6 °F 57.2 °F 82% 29.89 in 9.0 mi NW 10.4 mph 20.7 mph N/A   Overcast
3:40 PM 62.6 °F 57.2 °F 82% 29.89 in 10.0 mi WNW 11.5 mph 21.9 mph N/A   Overcast
3:55 PM 62.6 °F 55.4 °F 77% 29.89 in 10.0 mi NW 13.8 mph 19.6 mph N/A   Overcast
4:15 PM 62.6 °F 55.4 °F 77% 29.88 in 10.0 mi WNW 11.5 mph 19.6 mph N/A   Overcast
4:40 PM 62.6 °F 55.4 °F 77% 29.88 in 10.0 mi WNW 10.4 mph 18.4 mph N/A   Overcast
4:55 PM 62.6 °F 55.4 °F 77% 29.88 in 10.0 mi WNW 11.5 mph 21.9 mph N/A   Overcast
5:20 PM 62.6 °F 55.4 °F 77% 29.89 in 8.0 mi NW 12.7 mph 23.0 mph N/A   Overcast
5:35 PM 60.8 °F 55.4 °F 82% 29.89 in 10.0 mi WNW 10.4 mph 20.7 mph N/A   Overcast
5:55 PM 60.8 °F 55.4 °F 82% 29.90 in 8.0 mi WNW 11.5 mph 24.2 mph N/A   Overcast
6:20 PM 60.8 °F 55.4 °F 82% 29.90 in 10.0 mi WNW 11.5 mph 20.7 mph N/A   Overcast
6:35 PM 60.8 °F 55.4 °F 82% 29.90 in 10.0 mi NW 16.1 mph 25.3 mph N/A   Overcast
7:00 PM 59.0 °F 53.6 °F 82% 29.91 in 10.0 mi WNW 12.7 mph 19.6 mph N/A   Overcast
7:15 PM 59.0 °F 53.6 °F 82% 29.91 in 10.0 mi WNW 11.5 mph 23.0 mph N/A   Overcast
7:40 PM 59.0 °F 53.6 °F 82% 29.92 in 10.0 mi WNW 12.7 mph 21.9 mph N/A   Overcast
7:55 PM 59.0 °F 53.6 °F 82% 29.92 in 10.0 mi WNW 15.0 mph 21.9 mph N/A   Overcast
8:20 PM 59.0 °F 51.8 °F 77% 29.92 in 10.0 mi WNW 9.2 mph 24.2 mph N/A   Overcast
8:35 PM 59.0 °F 53.6 °F 82% 29.92 in 10.0 mi WNW 9.2 mph 23.0 mph N/A   Overcast
9:00 PM 59.0 °F 53.6 °F 82% 29.93 in 10.0 mi WNW 13.8 mph 23.0 mph N/A   Overcast
9:15 PM 59.0 °F 53.6 °F 82% 29.93 in 10.0 mi WNW 11.5 mph 20.7 mph N/A   Overcast
9:40 PM 60.8 °F 53.6 °F 77% 29.94 in 10.0 mi NW 13.8 mph 19.6 mph N/A   Overcast
9:55 PM 60.8 °F 53.6 °F 77% 29.94 in 10.0 mi WNW 11.5 mph 19.6 mph N/A   Overcast
10:20 PM 59.0 °F 53.6 °F 82% 29.94 in 6.0 mi WNW 11.5 mph 20.7 mph N/A   Haze
10:40 PM 59.0 °F 53.6 °F 82% 29.94 in 9.0 mi NW 18.4 mph 25.3 mph N/A   Overcast
10:55 PM 59.0 °F 53.6 °F 82% 29.94 in 10.0 mi WNW 15.0 mph 25.3 mph N/A   Overcast
11:20 PM 59.0 °F 53.6 °F 82% 29.94 in - WNW 13.8 mph 23.0 mph N/A   Mostly Cloudy
11:35 PM 59.0 °F 53.6 °F 82% 29.94 in 10.0 mi WNW 13.8 mph 24.2 mph N/A   Overcast
11:55 PM 57.2 °F 53.6 °F 88% 29.94 in 4.0 mi WNW 15.0 mph 25.3 mph N/A   Haze